Location: Bavichove
(50.8753°N, 3.3106°E)
Time: 08:54:09
(UTC+00:00)

Daily predictions for brighter satellites

Satellite Brightness Start Highest point End
(mag) Time Altitude Azimuth Time Altitude Azimuth Time Altitude Azimuth
PAYLOAD B 4.2 17:54:49 10° SSE 18:00:20 82° ENE 18:05:52 10° NNW
Cosmos 1140 Rocket 4.2 17:55:22 10° SW 18:00:25 59° WNW 18:05:32 10° NNE
Cosmos 468 Rocket 4.0 17:55:23 10° NNW 18:00:34 83° ENE 18:05:44 10° SSE
Cosmos 2297 Rocket 3.5 17:56:00 10° NW 18:01:25 46° WSW 18:06:47 10° S
Okean O Rocket 2.0 17:57:28 10° SE 18:01:33 42° ENE 18:05:41 10° N
SJ-6B 4.4 18:02:51 10° E 18:05:15 17° ENE 18:07:41 10° NNE
Cosmos 1980 Rocket 2.9 18:00:36 10° SSE 18:05:28 31° ESE 18:10:20 10° NE
ASTEX 1 3.5 18:02:44 10° NNE 18:07:40 60° E 18:12:35 10° S
ATLAS 2AS CENTAUR R/B 4.0 18:00:33 10° W 18:07:42 41° NNW 18:14:31 10° NE
CZ-4C R/B 4.4 18:03:55 10° N 18:08:11 54° WNW 18:12:17 10° SSW
SKYMED 3 4.4 18:04:26 10° NNE 18:08:34 73° ESE 18:12:39 10° S
Cosmos 1626 2.2 18:06:59 10° NNW 18:10:38 81° W 18:14:15 10° S
Cosmos 2369 4.3 18:05:41 10° S 18:10:50 36° ESE 18:16:00 10° NE
USA 229 DEB 4.1 18:05:45 10° NW 18:13:04 85° SW 18:20:55 10° SE
USA 229 4.1 18:05:50 10° NW 18:13:09 86° SW 18:21:01 10° SE
Cosmos 540 Rocket 3.4 18:10:16 10° NNW 18:15:25 82° ENE 18:20:32 10° SSE
Cosmos 1674 Rocket 4.0 18:14:02 10° N 18:18:12 41° ENE 18:22:23 10° SE
SKYMED 2 3.8 18:14:57 10° NNE 18:19:19 77° WNW 18:23:39 10° SSW
YAOGAN 1 2.5 18:15:32 10° SSE 18:19:50 72° ENE 18:24:10 10° N
Cosmos 841 Rocket 3.5 18:17:22 10° NNW 18:22:33 64° ENE 18:27:39 10° SE
SL-4 R/B 2.3 18:18:32 10° W 18:22:58 83° N 18:27:05 13° E
Cosmos 1850 Rocket 4.5 18:18:25 10° S 18:23:10 37° ESE 18:28:00 10° NE
SL-16 R/B 3.8 18:21:15 10° ESE 18:23:16 12° E 18:25:17 10° ENE
Cosmos 1437 Rocket 4.4 18:24:58 13° E 18:25:18 13° E 18:27:11 10° NE
OBJECT-B 1.6 18:25:24 15° ESE 18:26:41 22° ENE 18:28:46 10° NNE
Cosmos 1954 Rocket 4.2 18:25:05 10° SSW 18:30:15 79° WNW 18:35:28 10° NNE
Cosmos 1844 Rocket 4.1 18:26:20 10° NNW 18:30:45 23° NE 18:34:20 13° E
Cosmos 1763 Rocket 4.4 18:26:29 10° NNW 18:31:23 49° WSW 18:36:15 10° S
Cosmos 2279 Rocket 4.1 18:25:37 10° N 18:31:54 89° WSW 18:38:11 10° S
Meteor 2-10 4.3 18:27:23 10° S 18:32:51 52° E 18:38:12 10° NNE
H-2A R/B 4.1 18:32:31 14° E 18:33:42 16° ENE 18:36:06 10° NNE
ISS -3.7 18:30:57 10° WNW 18:34:18 72° SSW 18:36:41 18° ESE
Cosmos 2180 Rocket 4.5 18:28:44 10° N 18:34:59 76° E 18:41:16 10° SSE
Cosmos 2221 Rocket 3.6 18:30:36 10° N 18:35:08 78° ENE 18:39:40 10° SSE
Cosmos 2219 4.4 18:32:08 10° NW 18:37:37 46° WSW 18:43:03 10° S
SL-14 R/B 3.2 18:35:30 10° N 18:39:27 76° E 18:43:25 10° SSE
Aureole 1 4.1 18:38:49 10° SSW 18:41:49 81° ESE 18:45:16 10° NNE
Meteor 2-5 Rocket 4.3 18:36:56 10° N 18:42:04 36° ENE 18:46:13 14° SE
Cosmos 1975 Rocket 4.4 18:38:51 10° NNE 18:42:15 21° ENE 18:43:37 18° E
IRIDIUM 104 4.4 18:38:04 10° SSE 18:43:07 54° E 18:48:13 10° NNE
Resurs 01 Rocket 3.2 18:42:03 16° E 18:43:19 18° ENE 18:46:16 10° NNE
HJ-1C 3.7 18:40:38 10° S 18:43:44 63° WSW 18:46:51 10° NNW
NOSS 7 (H) 4.4 18:43:59 10° NW 18:47:08 90° NE 18:50:04 17° SE
Cosmos 2360 4.4 18:41:49 10° SSW 18:47:33 79° WNW 18:53:19 10° NNE
Cosmos 2227 4.4 18:42:16 10° NNW 18:47:48 53° NE 18:52:01 17° SE
Cosmos 1378 Rocket 3.5 18:43:44 10° N 18:48:10 78° E 18:52:31 10° SSE
Cosmos 1805 3.1 18:44:31 10° S 18:48:24 85° E 18:52:19 10° NNE
Cosmos 2263 Rocket 2.2 18:42:45 10° NNW 18:48:29 81° ENE 18:54:11 10° SSE
USA 186 2.1 18:49:21 20° SE 18:51:18 45° ENE 18:54:28 10° N
Cosmos 1741 Rocket 4.0 18:46:11 10° S 18:51:22 59° ESE 18:56:33 10° NNE
USA 215 3.6 18:45:04 10° ENE 18:51:33 64° NNW 18:57:59 10° W
IRIDIUM 114 4.3 18:47:07 10° S 18:52:16 64° E 18:57:26 10° N
IGS 5A 3.7 18:53:35 17° SE 18:56:34 49° ENE 19:00:35 10° N
Cosmos 2082 4.4 18:51:41 10° NW 18:57:18 57° WSW 19:02:53 10° S
ARGOS Delta rocket 4.5 18:54:54 10° N 19:00:16 67° WNW 19:05:23 10° SSW
Cosmos 1733 Rocket 3.4 18:56:02 10° SSW 19:00:27 71° WNW 19:04:56 10° N
Cosmos 1766 3.2 18:57:02 10° S 19:00:51 58° E 19:04:44 10° NNE
IRIDIUM 103 4.2 18:56:11 10° S 19:01:23 76° E 19:06:38 10° N
Meteor 2-14 Rocket 4.3 18:55:38 10° S 19:01:40 78° E 19:07:45 10° NNE
Cosmos 1814 Rocket 3.9 18:57:45 10° NNW 19:03:03 72° ENE 19:07:02 17° SSE
Cosmos 1242 Rocket 3.3 18:59:42 10° SSW 19:03:12 53° WNW 19:06:42 10° N
Okean-O 2.7 19:00:42 18° SE 19:03:51 56° ENE 19:08:12 10° N
Cosmos 1726 1.9 19:02:29 10° S 19:06:07 85° E 19:09:48 10° NNE
Resurs 1-3 3.8 19:05:39 25° SE 19:07:54 49° ENE 19:12:10 10° N
Cosmos 1697 Rocket 3.4 19:03:54 10° SW 19:09:25 56° NW 19:14:59 10° NNE
CSL-04 Debris 4.1 19:06:45 10° SSE 19:12:11 82° ENE 19:17:36 10° NNW
USA-17 4.3 19:12:27 10° NW 19:15:37 89° NE 19:16:45 41° SE
Cosmos 2084 3.1 19:11:48 10° SW 19:15:37 84° NW 19:18:22 18° NE
IRS-1C Rocket 4.0 19:12:10 17° SSE 19:16:17 71° ENE 19:21:32 10° NNW
Meteor 2-21 Rocket 4.3 19:11:30 10° S 19:17:32 73° E 19:23:34 10° NNE
IRIDIUM 106 4.4 19:14:28 10° S 19:19:42 78° W 19:24:57 10° N
USA 281 4.4 19:20:06 21° ENE 19:22:43 27° NE 19:28:00 10° NNW
Cosmos 489 Rocket 4.4 19:16:57 10° S 19:23:12 65° ESE 19:29:29 10° NNE
SPOT 1/Viking Rocket 4.0 19:22:41 34° E 19:24:02 40° ENE 19:28:51 10° N
Cosmos 1470 3.2 19:28:31 41° ENE 19:28:31 41° ENE 19:31:27 10° NNE
CZ-4 R/B 3.2 19:25:40 10° SSW 19:29:25 32° W 19:33:13 10° NNW
Cosmos 2285 Rocket 4.1 19:26:11 10° NNW 19:32:32 80° WSW 19:37:15 19° SSE
CRYOSAT 2 4.2 19:29:51 21° SSE 19:33:11 79° E 19:38:06 10° N
MINOTAUR IV R/B 4.4 19:29:24 10° SSW 19:33:54 76° ESE 19:38:25 10° NNE
Meteor 2-16 Rocket 4.3 19:29:15 10° S 19:35:23 83° E 19:41:34 10° NNE
Meteor 1-12 Rocket 4.3 19:29:37 10° S 19:35:38 88° WNW 19:41:43 10° NNE
deb Chang Zheng 4 3.4 19:35:01 56° ESE 19:35:38 66° ENE 19:39:44 10° N
Okean O Rocket 3.8 19:34:26 10° SSW 19:38:03 25° W 19:41:43 10° NW
BREEZE M DEB (TANK) 4.3 19:35:34 10° SSW 19:38:08 19° S 19:38:08 19° S
SJ-6B 3.3 19:37:26 24° S 19:39:27 54° W 19:43:09 10° NNW
Cosmos 2322 Rocket 4.1 19:43:57 14° NE 19:43:57 14° NE 19:44:51 10° NE
Cosmos 2026 Rocket 3.9 19:34:06 10° S 19:40:03 63° E 19:46:02 10° NNE
JB-3 4.2 19:36:53 10° NNE 19:40:59 79° ESE 19:42:18 42° S
Cosmos 1553 Rocket 4.2 19:36:31 10° N 19:42:42 52° ENE 19:44:28 41° ESE
CSL-04 Rocket 4.0 19:38:43 14° S 19:43:20 65° WSW 19:48:43 10° NNW
Cosmos 1908 Rocket 3.7 19:39:26 10° SSW 19:43:44 70° WNW 19:48:05 10° N
Nadezhda 4 Rocket 4.4 19:40:27 10° SSW 19:46:44 66° WNW 19:53:03 10° N
MetOp-A 3.1 19:48:59 79° NE 19:48:59 79° NE 19:52:45 10° NNW
Cosmos 1980 Rocket 2.9 19:43:41 10° SW 19:49:13 55° NW 19:54:45 10° NNE
Cosmos 968 Rocket 3.4 19:45:52 10° SSW 19:51:04 68° ESE 19:56:18 10° NNE
Cosmos 1782 Rocket 3.3 19:50:50 72° SSE 19:51:11 78° E 19:55:33 10° NNE
Landsat 5 4.2 19:49:36 10° N 19:54:02 59° WNW 19:58:27 10° SSW
OBJECT-B 3.1 19:56:16 15° WSW 19:56:46 15° W 19:58:26 10° NW
Meteor 1-24 Rocket 3.7 19:52:49 10° NNW 19:58:07 72° W 20:00:31 33° S
Landsat 7 4.2 19:58:03 34° S 19:59:57 62° WSW 20:04:39 10° NNW
ATLAS 2AS CENTAUR R/B 4.2 19:54:07 10° WNW 20:00:33 30° N 20:05:21 15° NE
Cosmos 1437 Rocket 3.2 20:00:09 44° SW 20:00:59 57° WNW 20:04:42 10° N
Spot 2 3.9 20:01:39 77° N 20:01:39 77° N 20:05:38 10° NNW
Ariane Rocket 3.2 20:02:33 53° ENE 20:02:33 53° ENE 20:07:23 10° N
SL-4 R/B 2.6 19:58:00 10° WNW 20:02:27 54° SSW 20:02:29 54° SSW
Cosmos 2278 3.9 19:56:46 10° SW 20:02:27 72° WNW 20:08:10 10° NNE
SL-16 R/B 2.0 20:00:40 10° SSW 20:06:17 67° ESE 20:11:56 10° NE
ERS-1 Rocket 4.3 20:07:59 27° NE 20:07:59 27° NE 20:11:15 10° N
H-2A R/B 2.7 20:08:58 63° WNW 20:08:58 63° WNW 20:12:36 10° NNW
Meteor 1-22 Rocket 4.2 20:04:12 10° SSW 20:09:34 76° WNW 20:15:11 10° N
ISS -1.3 20:08:04 10° W 20:09:34 18° WSW 20:09:34 18° WSW
MOS 1 4.2 20:10:29 56° SSE 20:11:47 87° WSW 20:17:29 10° NNW
NOSS 3-4 (A) 4.4 20:06:27 10° NW 20:12:40 42° NNE 20:14:38 35° ENE
NOSS 3-4 (C) 4.4 20:06:33 10° NW 20:12:46 42° NNE 20:14:44 35° ENE
Cosmos 1025 Rocket 3.4 20:10:38 10° NNW 20:14:53 60° W 20:14:56 60° W
Cosmos 1844 Rocket 2.5 20:09:48 10° NNW 20:15:31 84° ENE 20:16:00 75° SE
Cosmos 2278 Rocket 3.8 20:12:47 10° NNW 20:17:07 22° NE 20:17:26 22° NE
Resurs 01 Rocket 1.8 20:19:37 68° WNW 20:19:37 68° WNW 20:23:46 10° NNW
Cosmos 1975 Rocket 3.7 20:16:07 10° NNW 20:20:25 51° W 20:20:46 50° WSW
Terra 3.5 20:23:50 24° NNE 20:23:50 24° NNE 20:26:14 10° N
Cosmos 1092 Rocket 4.4 20:16:29 10° SSW 20:22:44 62° WNW 20:28:58 10° N
Cosmos 2084 Rocket 4.4 20:19:26 10° NW 20:21:58 40° NW 20:21:58 40° NW
Cosmos 836 Rocket 4.4 20:19:39 10° NNW 20:24:57 85° W 20:24:57 85° W
Spot 2 Rocket 4.5 20:27:42 35° NNE 20:27:42 35° NNE 20:31:08 10° N
SPOT 5 4.0 20:32:25 36° NNE 20:32:25 36° NNE 20:35:32 10° N
Cosmos 1943 Rocket 4.3 20:28:48 10° N 20:31:30 14° NNE 20:32:30 13° NE
Cosmos 2263 Rocket 4.4 20:27:44 10° NW 20:31:44 20° W 20:35:46 10° SW
Cosmos 1844 3.6 20:28:18 10° NNW 20:33:43 82° WNW 20:33:43 82° WNW
USA 215 3.8 20:31:46 36° NE 20:34:08 53° N 20:40:27 10° WNW
S3M 3.9 20:44:52 10° N 20:50:55 83° NNW 20:50:55 83° NNW
MetOp-B 4.5 20:52:36 62° WNW 20:52:36 62° WNW 20:57:24 10° NNW
Cosmos 2266 Rocket 4.5 20:57:54 52° NNE 20:57:54 52° NNE 21:02:43 10° NNE
Cosmos 2360 Rocket 4.3 21:02:36 16° NNE 21:02:36 16° NNE 21:03:37 10° NNE
USA 281 3.2 21:06:58 79° N 21:06:58 79° N 21:13:07 10° NNW
SPOT 3 Rocket 4.5 21:08:39 46° NW 21:08:39 46° NW 21:12:20 10° NNW
SeaSat 1 4.4 21:21:50 23° N 21:21:50 23° N 21:24:15 10° NNW
Gbstr 26 Del rocket 4.4 21:14:49 10° W 21:22:31 83° W 21:22:31 83° W
Cosmos 2322 Rocket 3.4 21:25:40 36° N 21:25:40 36° N 21:29:15 10° NNE
SL-16 R/B 3.9 21:45:56 10° WSW 21:50:52 30° NW 21:55:49 10° NNE
ATLAS 2AS CENTAUR R/B 3.6 21:46:22 10° NW 21:52:45 43° NNE 21:52:45 43° NNE
Terra 4.2 22:02:43 20° NW 22:02:43 20° NW 22:04:17 10° NNW
Cosmos 2278 Rocket 3.8 21:56:25 10° NNW 21:59:16 31° NNW 21:59:16 31° NNW
NOSS 3-4 (A) 4.4 21:57:17 10° NW 22:02:03 49° WNW 22:02:03 49° WNW
NOSS 3-4 (C) 4.4 21:57:24 10° NW 22:02:09 49° WNW 22:02:09 49° WNW
Cosmos 2333 Rocket 4.4 22:20:12 20° NNE 22:20:12 20° NNE 22:21:59 10° NNE
USA 215 4.2 22:19:07 43° NW 22:19:07 43° NW 22:23:20 10° WNW
Cosmos 2369 Rocket 4.3 22:12:23 10° NNW 22:15:21 20° NNE 22:15:21 20° NNE
Cosmos 1943 Rocket 4.1 22:11:39 10° NNW 22:14:00 24° N 22:14:00 24° N
Cosmos 2360 Rocket 4.3 22:44:19 22° NNW 22:44:19 22° NNW 22:47:17 10° NNE
ATLAS 2AS CENTAUR R/B 4.5 23:37:37 10° NW 23:40:10 24° NW 23:40:10 24° NW
